QPF
0.00 0.00 0.01 0.02 0.03 0.04 0.06 0.03 0.02 0.01 0.00 0.01 0.00 0.01 0.01 0.01 0.02 0.02 0.01 0.01 0.01 0.01 0.01 0.05 0.10 0.07 0.06 0.08 0.13 0.19 0.15 0.12 0.09 0.06 0.05 0.06 0.06 0.10 0.17 0.18 0.14 0.07 0.05 0.05 0.04 0.04 0.05 0.04 0.04
0.00 0.01 0.01 0.02 0.02 0.03 0.05 0.04 0.02 0.02 0.01 0.00 0.00 0.00 0.00 0.00 0.01 0.01 0.01 0.01 0.01 0.01 0.01 0.03 0.09 0.07 0.06 0.07 0.09 0.14 0.15 0.12 0.09 0.06 0.05 0.05 0.08 0.14 0.15 0.13 0.11 0.07 0.05 0.05 0.05 0.06 0.06 0.05 0.04
0.01 0.01 0.02 0.02 0.03 0.06 0.05 0.04 0.02 0.02 0.01 0.01 0.00 0.00 0.00 0.01 0.02 0.03 0.02 0.01 0.01 0.02 0.03 0.04 0.10 0.11 0.07 0.06 0.11 0.15 0.13 0.08 0.06 0.06 0.06 0.06 0.07 0.09 0.09 0.08 0.06 0.05 0.04 0.04 0.05 0.05 0.06 0.06 0.05
0.02 0.02 0.02 0.02 0.02 0.03 0.02 0.03 0.02 0.03 0.03 0.01 0.01 0.00 0.00 0.01 0.03 0.03 0.02 0.01 0.01 0.01 0.03 0.06 0.10 0.11 0.07 0.06 0.07 0.08 0.10 0.07 0.06 0.06 0.06 0.05 0.05 0.06 0.06 0.06 0.04 0.04 0.04 0.04 0.05 0.06 0.07 0.07 0.07
0.02 0.03 0.02 0.01 0.01 0.03 0.01 0.01 0.03 0.03 0.02 0.01 0.00 0.00 0.01 0.01 0.02 0.02 0.03 0.02 0.01 0.02 0.05 0.07 0.10 0.10 0.07 0.07 0.07 0.09 0.08 0.06 0.05 0.05 0.04 0.05 0.04 0.04 0.06 0.07 0.05 0.05 0.04 0.05 0.05 0.06 0.06 0.07 0.08
0.05 0.05 0.04 0.02 0.02 0.02 0.01 0.01 0.01 0.02 0.01 0.00 0.00 0.00 0.01 0.02 0.01 0.01 0.02 0.03 0.02 0.02 0.03 0.06 0.09 0.08 0.07 0.07 0.08 0.10 0.10 0.08 0.06 0.04 0.03 0.05 0.05 0.05 0.05 0.06 0.05 0.05 0.05 0.05 0.05 0.05 0.05 0.05 0.07
0.05 0.03 0.03 0.02 0.03 0.03 0.01 0.01 0.01 0.01 0.01 0.00 0.00 0.00 0.01 0.02 0.01 0.01 0.01 0.01 0.00 0.00 0.01 0.03 0.05 0.06 0.06 0.08 0.10 0.11 0.14 0.14 0.11 0.05 0.04 0.04 0.05 0.05 0.05 0.07 0.06 0.05 0.05 0.05 0.04 0.04 0.04 0.05 0.05
0.02 0.02 0.01 0.01 0.02 0.03 0.01 0.01 0.00 0.00 0.01 0.00 0.00 0.00 0.01 0.01 0.01 0.01 0.00 0.00 0.00 0.00 0.01 0.02 0.04 0.05 0.03 0.04 0.10 0.13 0.18 0.21 0.16 0.09 0.05 0.04 0.05 0.05 0.04 0.06 0.06 0.05 0.05 0.05 0.04 0.05 0.04 0.05 0.06
0.01 0.01 0.01 0.01 0.01 0.01 0.00 0.01 0.01 0.00 0.00 0.01 0.00 0.00 0.00 0.01 0.01 0.01 0.00 0.00 0.00 0.00 0.00 0.01 0.01 0.01 0.02 0.02 0.06 0.11 0.17 0.25 0.17 0.11 0.08 0.05 0.05 0.04 0.03 0.05 0.07 0.05 0.04 0.05 0.05 0.05 0.06 0.07 0.08
0.01 0.01 0.01 0.01 0.00 0.00 0.01 0.01 0.01 0.01 0.01 0.00 0.00 0.00 0.01 0.01 0.01 0.01 0.01 0.01 0.00 0.00 0.00 0.00 0.00 0.01 0.01 0.01 0.03 0.06 0.10 0.12 0.10 0.08 0.04 0.04 0.03 0.02 0.02 0.04 0.07 0.05 0.05 0.05 0.06 0.06 0.06 0.07 0.08
0.01 0.01 0.01 0.01 0.01 0.01 0.01 0.01 0.01 0.01 0.02 0.00 0.00 0.00 0.01 0.01 0.01 0.01 0.00 0.00 0.00 0.00 0.01 0.00 0.00 0.00 0.00 0.01 0.02 0.03 0.05 0.06 0.06 0.06 0.04 0.02 0.02 0.02 0.02 0.04 0.06 0.05 0.05 0.04 0.04 0.04 0.04 0.03 0.02
0.01 0.00 0.00 0.01 0.01 0.01 0.01 0.01 0.01 0.01 0.01 0.01 0.00 0.00 0.00 0.01 0.01 0.00 0.00 0.00 0.00 0.00 0.00 0.00 0.00 0.00 0.00 0.01 0.01 0.02 0.03 0.05 0.05 0.05 0.04 0.02 0.02 0.02 0.02 0.03 0.04 0.04 0.03 0.04 0.04 0.04 0.04 0.03 0.02
0.00 0.00 0.01 0.00 0.01 0.01 0.02 0.01 0.01 0.00 0.01 0.01 0.01 0.01 0.01 0.00 0.00 0.00 0.01 0.01 0.01 0.01 0.01 0.01 0.00 0.00 0.00 0.01 0.01 0.02 0.03 0.02 0.03 0.04 0.03 0.03 0.02 0.02 0.02 0.03 0.04 0.03 0.02 0.03 0.04 0.03 0.04 0.04 0.03
0.00 0.00 0.01 0.01 0.01 0.01 0.02 0.01 0.00 0.01 0.01 0.01 0.01 0.01 0.01 0.01 0.00 0.01 0.02 0.02 0.02 0.02 0.01 0.01 0.00 0.00 0.00 0.01 0.01 0.01 0.02 0.02 0.04 0.05 0.04 0.03 0.02 0.02 0.02 0.03 0.03 0.03 0.03 0.03 0.03 0.03 0.04 0.05 0.04
0.00 0.00 0.01 0.01 0.00 0.00 0.01 0.01 0.01 0.01 0.01 0.01 0.01 0.01 0.01 0.00 0.00 0.00 0.01 0.02 0.02 0.02 0.02 0.02 0.01 0.00 0.00 0.00 0.02 0.01 0.01 0.02 0.03 0.04 0.04 0.04 0.03 0.02 0.02 0.03 0.03 0.03 0.04 0.03 0.02 0.02 0.02 0.03 0.03
0.00 0.01 0.00 0.00 0.00 0.00 0.00 0.01 0.02 0.01 0.01 0.01 0.01 0.01 0.00 0.00 0.00 0.00 0.00 0.01 0.01 0.01 0.01 0.01 0.01 0.00 0.00 0.01 0.01 0.01 0.02 0.01 0.01 0.02 0.03 0.04 0.04 0.02 0.03 0.05 0.04 0.03 0.03 0.03 0.02 0.01 0.01 0.01 0.02
0.00 0.00 0.00 0.00 0.01 0.00 0.00 0.00 0.02 0.02 0.02 0.02 0.01 0.01 0.00 0.00 0.00 0.00 0.00 0.00 0.00 0.00 0.00 0.01 0.01 0.01 0.01 0.01 0.01 0.01 0.01 0.01 0.01 0.02 0.04 0.05 0.05 0.03 0.03 0.05 0.03 0.03 0.03 0.03 0.02 0.01 0.01 0.01 0.02
0.00 0.01 0.02 0.01 0.01 0.00 0.00 0.00 0.00 0.01 0.02 0.02 0.01 0.01 0.00 0.00 0.00 0.00 0.00 0.00 0.00 0.00 0.00 0.01 0.01 0.01 0.02 0.02 0.01 0.01 0.02 0.02 0.02 0.02 0.03 0.04 0.06 0.04 0.04 0.04 0.04 0.04 0.03 0.02 0.02 0.01 0.02 0.03 0.03
0.00 0.01 0.01 0.01 0.01 0.00 0.00 0.00 0.00 0.00 0.00 0.01 0.01 0.00 0.00 0.00 0.00 0.00 0.00 0.01 0.00 0.00 0.01 0.01 0.01 0.01 0.01 0.01 0.01 0.02 0.04 0.04 0.03 0.02 0.03 0.05 0.06 0.06 0.05 0.04 0.05 0.05 0.04 0.03 0.03 0.03 0.04 0.04 0.04
0.00 0.01 0.01 0.01 0.01 0.00 0.00 0.00 0.00 0.00 0.00 0.00 0.00 0.00 0.00 0.00 0.00 0.00 0.01 0.01 0.01 0.01 0.01 0.02 0.02 0.02 0.03 0.03 0.04 0.06 0.09 0.06 0.04 0.03 0.02 0.04 0.07 0.07 0.06 0.05 0.06 0.06 0.05 0.04 0.03 0.03 0.03 0.04 0.05
0.00 0.00 0.01 0.01 0.00 0.00 0.00 0.00 0.00 0.00 0.00 0.00 0.00 0.00 0.01 0.00 0.00 0.00 0.00 0.01 0.01 0.01 0.01 0.02 0.03 0.03 0.03 0.04 0.06 0.06 0.04 0.03 0.04 0.04 0.03 0.03 0.04 0.06 0.06 0.05 0.06 0.06 0.05 0.05 0.04 0.04 0.04 0.04 0.05
0.00 0.00 0.01 0.01 0.00 0.00 0.00 0.00 0.00 0.00 0.00 0.00 0.00 0.00 0.01 0.01 0.01 0.00 0.01 0.01 0.01 0.01 0.01 0.01 0.02 0.03 0.02 0.02 0.03 0.02 0.02 0.02 0.02 0.03 0.04 0.05 0.05 0.05 0.05 0.05 0.06 0.06 0.04 0.04 0.04 0.03 0.03 0.04 0.03
0.00 0.00 0.00 0.00 0.00 0.00 0.00 0.00 0.00 0.00 0.00 0.00 0.00 0.00 0.00 0.01 0.01 0.01 0.01 0.01 0.00 0.00 0.00 0.00 0.01 0.01 0.02 0.02 0.02 0.02 0.02 0.02 0.02 0.02 0.02 0.03 0.04 0.05 0.05 0.06 0.07 0.07 0.06 0.06 0.06 0.04 0.03 0.03 0.03
0.00 0.00 0.00 0.01 0.01 0.00 0.00 0.00 0.00 0.00 0.00 0.00 0.00 0.00 0.00 0.00 0.01 0.01 0.01 0.01 0.00 0.00 0.00 0.00 0.00 0.01 0.02 0.03 0.02 0.03 0.03 0.03 0.02 0.01 0.01 0.02 0.04 0.05 0.06 0.08 0.10 0.09 0.07 0.05 0.06 0.05 0.03 0.02 0.02
0.00 0.00 0.01 0.01 0.01 0.00 0.00 0.00 0.00 0.00 0.00 0.00 0.00 0.00 0.00 0.00 0.01 0.01 0.01 0.01 0.01 0.01 0.00 0.00 0.00 0.01 0.02 0.03 0.04 0.04 0.04 0.03 0.03 0.02 0.03 0.04 0.05 0.06 0.07 0.10 0.11 0.09 0.07 0.06 0.05 0.04 0.04 0.03 0.03
0.00 0.00 0.00 0.00 0.00 0.00 0.00 0.00 0.00 0.00 0.00 0.00 0.00 0.00 0.00 0.00 0.01 0.01 0.01 0.01 0.01 0.01 0.01 0.01 0.01 0.01 0.02 0.04 0.05 0.04 0.04 0.04 0.04 0.04 0.05 0.07 0.07 0.07 0.09 0.09 0.11 0.12 0.11 0.08 0.04 0.04 0.04 0.05 0.05
0.00 0.00 0.00 0.00 0.00 0.00 0.00 0.00 0.00 0.00 0.00 0.00 0.00 0.00 0.00 0.00 0.01 0.01 0.01 0.01 0.01 0.01 0.01 0.01 0.02 0.02 0.04 0.06 0.06 0.05 0.05 0.06 0.06 0.04 0.05 0.07 0.07 0.07 0.07 0.08 0.09 0.08 0.08 0.07 0.05 0.04 0.04 0.05 0.05
0.00 0.00 0.00 0.00 0.00 0.00 0.00 0.00 0.00 0.00 0.00 0.00 0.00 0.00 0.00 0.00 0.01 0.02 0.02 0.01 0.01 0.01 0.01 0.01 0.02 0.02 0.04 0.07 0.06 0.05 0.04 0.05 0.06 0.06 0.05 0.05 0.05 0.05 0.07 0.06 0.06 0.06 0.06 0.06 0.05 0.05 0.05 0.05 0.05
0.00 0.00 0.00 0.00 0.00 0.00 0.00 0.00 0.00 0.00 0.00 0.00 0.00 0.00 0.00 0.01 0.01 0.02 0.02 0.01 0.01 0.02 0.01 0.01 0.01 0.02 0.02 0.04 0.07 0.06 0.04 0.04 0.05 0.06 0.06 0.05 0.06 0.06 0.06 0.06 0.06 0.06 0.07 0.08 0.07 0.06 0.06 0.06 0.05
0.00 0.00 0.00 0.00 0.00 0.00 0.00 0.00 0.00 0.00 0.00 0.00 0.00 0.00 0.01 0.01 0.02 0.01 0.01 0.01 0.02 0.02 0.01 0.02 0.02 0.02 0.03 0.05 0.06 0.08 0.07 0.05 0.05 0.07 0.08 0.07 0.07 0.08 0.06 0.06 0.06 0.06 0.06 0.08 0.08 0.07 0.07 0.07 0.07
MSLP
1006.15 1007.10 1008.14 1009.15 1010.01 1010.64 1011.01 1011.15 1011.12 1011.01 1010.95 1010.98 1011.15 1011.43 1011.77 1012.08 1012.27 1012.28 1012.10 1011.76 1011.31 1010.86 1010.48 1010.23 1010.16 1010.24 1010.43 1010.68 1010.93 1011.13 1011.27 1011.36 1011.43 1011.51 1011.62 1011.78 1011.98 1012.19 1012.38 1012.54 1012.65 1012.73 1012.80 1012.87 1012.98 1013.14 1013.34 1013.57 1013.80
1006.47 1007.53 1008.64 1009.66 1010.47 1011.00 1011.24 1011.21 1011.02 1010.77 1010.59 1010.53 1010.65 1010.92 1011.27 1011.62 1011.88 1011.97 1011.88 1011.64 1011.30 1010.94 1010.65 1010.47 1010.46 1010.58 1010.80 1011.06 1011.32 1011.53 1011.68 1011.77 1011.85 1011.92 1012.02 1012.16 1012.32 1012.49 1012.65 1012.78 1012.87 1012.94 1013.00 1013.07 1013.18 1013.32 1013.51 1013.71 1013.93
1006.98 1008.12 1009.24 1010.21 1010.93 1011.33 1011.42 1011.25 1010.93 1010.57 1010.30 1010.21 1010.30 1010.57 1010.94 1011.33 1011.63 1011.78 1011.75 1011.58 1011.31 1011.02 1010.79 1010.67 1010.69 1010.84 1011.08 1011.36 1011.62 1011.85 1012.01 1012.13 1012.21 1012.28 1012.37 1012.49 1012.62 1012.75 1012.87 1012.97 1013.05 1013.11 1013.17 1013.25 1013.37 1013.51 1013.69 1013.89 1014.08
1007.63 1008.77 1009.85 1010.73 1011.32 1011.57 1011.52 1011.23 1010.82 1010.41 1010.12 1010.02 1010.13 1010.42 1010.81 1011.22 1011.54 1011.72 1011.73 1011.60 1011.38 1011.14 1010.96 1010.87 1010.91 1011.07 1011.31 1011.59 1011.86 1012.08 1012.26 1012.39 1012.48 1012.57 1012.66 1012.76 1012.87 1012.98 1013.08 1013.16 1013.23 1013.29 1013.37 1013.46 1013.59 1013.74 1013.92 1014.10 1014.28
1008.29 1009.40 1010.37 1011.11 1011.55 1011.67 1011.50 1011.13 1010.68 1010.27 1010.00 1009.95 1010.10 1010.43 1010.85 1011.27 1011.61 1011.80 1011.83 1011.73 1011.54 1011.34 1011.18 1011.12 1011.17 1011.32 1011.54 1011.79 1012.04 1012.25 1012.43 1012.56 1012.68 1012.78 1012.88 1012.99 1013.09 1013.19 1013.28 1013.35 1013.42 1013.49 1013.58 1013.70 1013.84 1014.00 1014.17 1014.35 1014.50
1008.85 1009.86 1010.69 1011.27 1011.56 1011.55 1011.30 1010.90 1010.47 1010.12 1009.93 1009.95 1010.18 1010.55 1011.00 1011.44 1011.78 1011.98 1012.02 1011.95 1011.79 1011.62 1011.49 1011.44 1011.48 1011.61 1011.79 1012.00 1012.20 1012.39 1012.54 1012.68 1012.80 1012.92 1013.04 1013.16 1013.28 1013.38 1013.47 1013.55 1013.62 1013.70 1013.80 1013.92 1014.07 1014.24 1014.40 1014.56 1014.69
1009.19 1010.05 1010.72 1011.14 1011.29 1011.19 1010.91 1010.54 1010.18 1009.93 1009.86 1009.99 1010.30 1010.73 1011.20 1011.64 1011.98 1012.19 1012.25 1012.20 1012.09 1011.97 1011.87 1011.84 1011.88 1011.97 1012.11 1012.25 1012.40 1012.53 1012.65 1012.77 1012.90 1013.03 1013.17 1013.31 1013.45 1013.56 1013.65 1013.72 1013.79 1013.86 1013.96 1014.08 1014.23 1014.38 1014.54 1014.67 1014.78
1009.24 1009.95 1010.45 1010.73 1010.77 1010.62 1010.36 1010.06 1009.82 1009.72 1009.78 1010.02 1010.41 1010.89 1011.38 1011.82 1012.16 1012.37 1012.46 1012.45 1012.40 1012.33 1012.29 1012.29 1012.33 1012.40 1012.48 1012.56 1012.64 1012.71 1012.79 1012.88 1012.99 1013.13 1013.29 1013.45 1013.59 1013.70 1013.78 1013.84 1013.88 1013.94 1014.01 1014.11 1014.24 1014.38 1014.52 1014.64 1014.73
1009.05 1009.60 1009.96 1010.11 1010.09 1009.94 1009.73 1009.54 1009.44 1009.49 1009.69 1010.04 1010.50 1011.01 1011.50 1011.93 1012.26 1012.47 1012.59 1012.64 1012.65 1012.66 1012.68 1012.73 1012.79 1012.84 1012.89 1012.91 1012.93 1012.93 1012.96 1013.02 1013.12 1013.25 1013.41 1013.57 1013.71 1013.81 1013.87 1013.89 1013.90 1013.91 1013.94 1014.00 1014.10 1014.23 1014.35 1014.46 1014.54
1008.70 1009.11 1009.35 1009.42 1009.37 1009.24 1009.12 1009.05 1009.10 1009.29 1009.61 1010.04 1010.55 1011.06 1011.54 1011.95 1012.25 1012.47 1012.62 1012.72 1012.80 1012.89 1012.99 1013.10 1013.19 1013.25 1013.28 1013.26 1013.22 1013.18 1013.16 1013.19 1013.26 1013.38 1013.53 1013.68 1013.81 1013.88 1013.90 1013.88 1013.83 1013.78 1013.76 1013.78 1013.85 1013.95 1014.06 1014.17 1014.26
1008.35 1008.65 1008.79 1008.81 1008.75 1008.67 1008.63 1008.69 1008.86 1009.16 1009.57 1010.05 1010.57 1011.07 1011.51 1011.87 1012.15 1012.36 1012.53 1012.68 1012.83 1013.00 1013.17 1013.34 1013.48 1013.56 1013.59 1013.56 1013.49 1013.42 1013.36 1013.36 1013.41 1013.52 1013.65 1013.78 1013.88 1013.92 1013.90 1013.81 1013.71 1013.60 1013.52 1013.50 1013.53 1013.62 1013.73 1013.86 1013.96
1008.17 1008.37 1008.44 1008.42 1008.36 1008.32 1008.36 1008.50 1008.76 1009.13 1009.59 1010.09 1010.58 1011.04 1011.43 1011.74 1011.98 1012.18 1012.35 1012.53 1012.73 1012.96 1013.20 1013.43 1013.61 1013.73 1013.78 1013.75 1013.68 1013.60 1013.53 1013.51 1013.55 1013.63 1013.74 1013.85 1013.92 1013.92 1013.86 1013.74 1013.58 1013.42 1013.30 1013.24 1013.25 1013.33 1013.45 1013.59 1013.73
1008.24 1008.38 1008.39 1008.33 1008.27 1008.26 1008.33 1008.52 1008.83 1009.22 1009.68 1010.15 1010.61 1011.00 1011.33 1011.59 1011.78 1011.95 1012.12 1012.31 1012.54 1012.80 1013.09 1013.36 1013.58 1013.74 1013.82 1013.82 1013.77 1013.70 1013.63 1013.61 1013.63 1013.70 1013.79 1013.87 1013.92 1013.90 1013.81 1013.66 1013.48 1013.30 1013.15 1013.08 1013.08 1013.16 1013.29 1013.46 1013.62
1008.64 1008.71 1008.66 1008.57 1008.49 1008.48 1008.56 1008.74 1009.04 1009.41 1009.82 1010.25 1010.63 1010.97 1011.23 1011.44 1011.59 1011.73 1011.88 1012.07 1012.30 1012.57 1012.86 1013.16 1013.41 1013.61 1013.73 1013.77 1013.76 1013.71 1013.66 1013.63 1013.65 1013.70 1013.77 1013.83 1013.86 1013.84 1013.75 1013.60 1013.43 1013.25 1013.11 1013.04 1013.05 1013.14 1013.30 1013.48 1013.67
1009.28 1009.29 1009.20 1009.07 1008.96 1008.91 1008.96 1009.11 1009.35 1009.65 1010.00 1010.34 1010.66 1010.93 1011.15 1011.31 1011.44 1011.56 1011.69 1011.85 1012.06 1012.31 1012.59 1012.89 1013.16 1013.38 1013.54 1013.63 1013.66 1013.65 1013.62 1013.60 1013.61 1013.64 1013.69 1013.73 1013.76 1013.74 1013.67 1013.56 1013.42 1013.28 1013.18 1013.13 1013.16 1013.27 1013.44 1013.65 1013.86
1010.06 1010.02 1009.88 1009.71 1009.57 1009.48 1009.48 1009.55 1009.70 1009.91 1010.16 1010.41 1010.66 1010.87 1011.05 1011.20 1011.32 1011.42 1011.53 1011.67 1011.85 1012.07 1012.33 1012.60 1012.87 1013.12 1013.32 1013.46 1013.54 1013.56 1013.56 1013.54 1013.53 1013.54 1013.56 1013.58 1013.61 1013.60 1013.57 1013.51 1013.43 1013.35 1013.30 1013.30 1013.36 1013.49 1013.67 1013.89 1014.11
1010.79 1010.72 1010.57 1010.39 1010.22 1010.10 1010.03 1010.02 1010.06 1010.15 1010.28 1010.43 1010.59 1010.76 1010.91 1011.06 1011.18 1011.30 1011.41 1011.53 1011.68 1011.86 1012.08 1012.34 1012.60 1012.87 1013.10 1013.29 1013.42 1013.48 1013.50 1013.49 1013.46 1013.43 1013.41 1013.41 1013.43 1013.44 1013.45 1013.45 1013.44 1013.43 1013.44 1013.49 1013.58 1013.73 1013.92 1014.14 1014.37
1011.35 1011.28 1011.15 1010.99 1010.84 1010.70 1010.58 1010.48 1010.40 1010.35 1010.33 1010.36 1010.43 1010.54 1010.67 1010.83 1010.98 1011.12 1011.25 1011.38 1011.51 1011.67 1011.86 1012.09 1012.36 1012.64 1012.91 1013.14 1013.32 1013.44 1013.48 1013.47 1013.41 1013.35 1013.29 1013.25 1013.24 1013.27 1013.31 1013.36 1013.42 1013.48 1013.55 1013.64 1013.76 1013.92 1014.12 1014.34 1014.58
1011.63 1011.61 1011.56 1011.48 1011.39 1011.27 1011.12 1010.93 1010.72 1010.51 1010.32 1010.19 1010.14 1010.17 1010.27 1010.44 1010.62 1010.81 1010.98 1011.13 1011.28 1011.43 1011.61 1011.83 1012.10 1012.40 1012.72 1013.01 1013.25 1013.42 1013.49 1013.48 1013.41 1013.30 1013.20 1013.12 1013.09 1013.10 1013.16 1013.26 1013.37 1013.48 1013.60 1013.73 1013.87 1014.03 1014.23 1014.45 1014.69
1011.64 1011.72 1011.80 1011.87 1011.89 1011.83 1011.67 1011.40 1011.04 1010.63 1010.24 1009.91 1009.70 1009.62 1009.67 1009.82 1010.04 1010.28 1010.51 1010.72 1010.90 1011.07 1011.26 1011.49 1011.78 1012.12 1012.49 1012.85 1013.15 1013.38 1013.50 1013.51 1013.43 1013.30 1013.16 1013.04 1012.97 1012.97 1013.03 1013.15 1013.29 1013.44 1013.59 1013.74 1013.89 1014.05 1014.23 1014.45 1014.69
1011.42 1011.66 1011.95 1012.21 1012.39 1012.43 1012.27 1011.91 1011.38 1010.75 1010.10 1009.53 1009.10 1008.86 1008.82 1008.94 1009.18 1009.48 1009.79 1010.06 1010.30 1010.52 1010.75 1011.01 1011.34 1011.72 1012.15 1012.58 1012.96 1013.26 1013.44 1013.50 1013.44 1013.31 1013.14 1013.00 1012.90 1012.87 1012.93 1013.04 1013.20 1013.37 1013.54 1013.69 1013.83 1013.98 1014.15 1014.35 1014.59
1011.09 1011.55 1012.08 1012.59 1012.96 1013.10 1012.95 1012.49 1011.77 1010.87 1009.93 1009.06 1008.37 1007.93 1007.75 1007.82 1008.06 1008.41 1008.79 1009.15 1009.47 1009.76 1010.04 1010.35 1010.71 1011.15 1011.63 1012.13 1012.60 1012.99 1013.25 1013.37 1013.37 1013.26 1013.10 1012.95 1012.84 1012.80 1012.84 1012.95 1013.11 1013.28 1013.44 1013.59 1013.72 1013.85 1014.00 1014.19 1014.42
1010.80 1011.50 1012.30 1013.05 1013.61 1013.85 1013.70 1013.12 1012.19 1011.00 1009.74 1008.54 1007.56 1006.88 1006.54 1006.52 1006.75 1007.14 1007.59 1008.04 1008.44 1008.81 1009.15 1009.50 1009.91 1010.39 1010.93 1011.49 1012.04 1012.51 1012.87 1013.08 1013.15 1013.10 1012.98 1012.85 1012.75 1012.71 1012.74 1012.85 1013.00 1013.16 1013.32 1013.46 1013.58 1013.69 1013.81 1013.97 1014.19
1010.64 1011.59 1012.64 1013.62 1014.34 1014.66 1014.48 1013.78 1012.62 1011.14 1009.54 1008.02 1006.73 1005.81 1005.29 1005.17 1005.37 1005.78 1006.30 1006.83 1007.32 1007.75 1008.14 1008.54 1008.97 1009.47 1010.04 1010.66 1011.27 1011.82 1012.27 1012.58 1012.74 1012.77 1012.73 1012.64 1012.57 1012.55 1012.59 1012.70 1012.85 1013.01 1013.17 1013.29 1013.40 1013.49 1013.59 1013.72 1013.92
1010.67 1011.83 1013.09 1014.25 1015.09 1015.45 1015.22 1014.38 1013.01 1011.26 1009.36 1007.53 1005.97 1004.82 1004.14 1003.92 1004.08 1004.51 1005.07 1005.67 1006.22 1006.71 1007.14 1007.55 1007.99 1008.49 1009.06 1009.69 1010.33 1010.94 1011.47 1011.87 1012.13 1012.26 1012.30 1012.29 1012.27 1012.29 1012.36 1012.48 1012.63 1012.80 1012.95 1013.08 1013.17 1013.25 1013.33 1013.44 1013.61
1010.88 1012.19 1013.59 1014.86 1015.76 1016.12 1015.82 1014.85 1013.30 1011.33 1009.19 1007.13 1005.36 1004.03 1003.22 1002.91 1003.04 1003.47 1004.06 1004.70 1005.30 1005.81 1006.26 1006.66 1007.07 1007.54 1008.07 1008.68 1009.32 1009.96 1010.53 1011.00 1011.35 1011.57 1011.70 1011.77 1011.82 1011.89 1012.00 1012.15 1012.32 1012.50 1012.67 1012.80 1012.89 1012.96 1013.03 1013.12 1013.25
1011.20 1012.59 1014.05 1015.35 1016.24 1016.56 1016.18 1015.11 1013.43 1011.33 1009.05 1006.86 1004.97 1003.53 1002.64 1002.28 1002.38 1002.80 1003.40 1004.05 1004.66 1005.17 1005.60 1005.96 1006.32 1006.72 1007.19 1007.74 1008.34 1008.96 1009.54 1010.05 1010.46 1010.76 1010.96 1011.11 1011.24 1011.37 1011.52 1011.71 1011.91 1012.11 1012.30 1012.44 1012.55 1012.62 1012.68 1012.75 1012.86
1011.57 1012.95 1014.38 1015.61 1016.44 1016.68 1016.23 1015.10 1013.38 1011.24 1008.95 1006.74 1004.83 1003.38 1002.47 1002.08 1002.16 1002.57 1003.15 1003.78 1004.37 1004.85 1005.23 1005.53 1005.82 1006.13 1006.51 1006.97 1007.49 1008.05 1008.61 1009.11 1009.54 1009.88 1010.15 1010.36 1010.54 1010.73 1010.93 1011.16 1011.40 1011.64 1011.85 1012.02 1012.15 1012.24 1012.30 1012.36 1012.45
1011.90 1013.19 1014.49 1015.59 1016.29 1016.43 1015.94 1014.80 1013.12 1011.07 1008.88 1006.77 1004.96 1003.58 1002.70 1002.33 1002.40 1002.77 1003.31 1003.89 1004.41 1004.83 1005.15 1005.38 1005.57 1005.79 1006.06 1006.42 1006.84 1007.32 1007.80 1008.27 1008.68 1009.03 1009.32 1009.57 1009.80 1010.03 1010.29 1010.56 1010.84 1011.11 1011.36 1011.56 1011.72 1011.82 1011.89 1011.96 1012.03
1012.15 1013.28 1014.38 1015.28 1015.82 1015.86 1015.33 1014.25 1012.70 1010.83 1008.84 1006.94 1005.31 1004.07 1003.29 1002.94 1002.99 1003.31 1003.77 1004.26 1004.71 1005.05 1005.28 1005.44 1005.55 1005.67 1005.85 1006.10 1006.41 1006.78 1007.18 1007.57 1007.94 1008.26 1008.55 1008.81 1009.07 1009.34 1009.63 1009.94 1010.25 1010.56 1010.85 1011.08 1011.27 1011.40 1011.49 1011.55 1011.62
Thickness
5811 5809 5805 5795 5777 5761 5758 5773 5783 5785 5787 5794 5796 5791 5783 5776 5770 5768 5793 5802 5802 5800 5798 5796 5794 5792 5790 5789 5788 5787 5787 5787 5786 5785 5785 5785 5784 5782 5779 5778 5777 5776 5775 5774 5772 5771 5770 5769 5768
5813 5809 5801 5788 5766 5748 5759 5779 5783 5788 5794 5799 5798 5793 5785 5782 5789 5790 5796 5801 5802 5800 5798 5796 5794 5792 5790 5788 5787 5786 5785 5785 5784 5784 5783 5784 5783 5780 5778 5776 5775 5775 5774 5773 5772 5770 5769 5768 5766
5814 5810 5794 5779 5764 5755 5766 5785 5789 5796 5802 5801 5794 5793 5788 5785 5792 5795 5800 5803 5801 5799 5797 5795 5793 5791 5789 5787 5786 5785 5784 5783 5783 5782 5781 5781 5781 5779 5777 5775 5774 5773 5772 5771 5770 5769 5768 5767 5765
5813 5802 5791 5775 5767 5776 5783 5791 5796 5795 5800 5802 5795 5787 5792 5799 5800 5801 5804 5803 5800 5798 5797 5794 5792 5790 5788 5786 5785 5784 5783 5782 5781 5780 5780 5779 5778 5777 5776 5775 5773 5772 5771 5770 5769 5768 5767 5765 5764
5811 5796 5779 5767 5773 5787 5796 5801 5800 5794 5794 5797 5794 5784 5786 5800 5806 5805 5804 5802 5799 5797 5796 5794 5791 5789 5787 5785 5784 5782 5782 5781 5780 5779 5778 5777 5776 5775 5774 5773 5772 5771 5770 5769 5768 5767 5766 5764 5762
5801 5790 5769 5762 5777 5792 5801 5806 5802 5796 5795 5797 5793 5785 5787 5801 5803 5803 5803 5801 5799 5796 5795 5792 5790 5788 5786 5784 5783 5782 5781 5780 5779 5778 5777 5776 5775 5774 5773 5772 5771 5770 5769 5768 5767 5765 5764 5762 5761
5796 5784 5773 5774 5779 5788 5802 5809 5802 5797 5795 5797 5799 5785 5788 5797 5802 5803 5801 5799 5797 5795 5793 5791 5789 5787 5785 5783 5782 5781 5779 5778 5778 5777 5776 5775 5774 5773 5772 5770 5769 5769 5767 5766 5765 5764 5763 5761 5760
5806 5788 5778 5777 5781 5789 5807 5810 5810 5804 5800 5809 5805 5789 5787 5798 5803 5802 5799 5796 5795 5793 5791 5790 5788 5786 5784 5783 5782 5781 5780 5778 5777 5776 5775 5774 5773 5772 5771 5770 5769 5768 5766 5766 5765 5763 5762 5761 5759
5813 5784 5773 5783 5787 5796 5810 5808 5811 5815 5809 5808 5809 5804 5804 5805 5803 5798 5793 5791 5790 5790 5789 5788 5787 5785 5784 5783 5782 5781 5780 5779 5777 5775 5774 5773 5772 5771 5770 5769 5768 5767 5766 5765 5765 5763 5762 5760 5759
5803 5780 5789 5804 5806 5806 5811 5810 5810 5807 5801 5801 5803 5806 5808 5804 5799 5794 5790 5788 5787 5787 5788 5788 5786 5785 5783 5782 5781 5780 5778 5777 5775 5774 5773 5772 5771 5770 5769 5768 5768 5767 5766 5765 5764 5763 5761 5760 5758
5805 5795 5807 5815 5818 5816 5812 5812 5815 5805 5796 5802 5802 5803 5804 5801 5798 5794 5792 5790 5789 5789 5788 5788 5786 5785 5783 5781 5780 5778 5777 5776 5775 5774 5773 5772 5771 5770 5769 5768 5767 5766 5765 5764 5763 5762 5760 5759 5757
5808 5812 5817 5820 5824 5820 5816 5815 5811 5808 5809 5818 5815 5811 5806 5800 5797 5795 5793 5792 5791 5789 5788 5788 5787 5785 5782 5781 5780 5778 5777 5775 5774 5773 5772 5771 5770 5769 5768 5767 5767 5765 5764 5763 5762 5761 5760 5758 5757
5811 5816 5824 5827 5825 5822 5820 5815 5814 5813 5820 5821 5817 5811 5806 5802 5800 5799 5798 5795 5792 5790 5789 5788 5787 5785 5783 5781 5780 5778 5776 5775 5774 5773 5772 5771 5770 5769 5768 5767 5766 5765 5764 5763 5762 5761 5759 5758 5756
5818 5820 5822 5825 5824 5825 5817 5815 5813 5814 5820 5816 5812 5808 5807 5804 5802 5799 5796 5794 5793 5791 5791 5790 5788 5786 5784 5782 5780 5778 5777 5775 5774 5773 5772 5771 5770 5768 5767 5766 5765 5764 5763 5763 5762 5760 5758 5757 5755
5823 5814 5815 5821 5823 5822 5817 5805 5810 5818 5818 5811 5809 5808 5806 5805 5803 5800 5799 5797 5796 5794 5792 5791 5789 5787 5785 5783 5781 5780 5778 5776 5774 5773 5772 5771 5770 5768 5767 5765 5764 5763 5763 5762 5760 5759 5757 5756 5755
5814 5802 5794 5812 5820 5820 5809 5791 5812 5819 5814 5807 5807 5806 5805 5804 5804 5804 5802 5800 5798 5796 5793 5792 5792 5788 5785 5783 5781 5780 5778 5776 5774 5773 5772 5771 5770 5769 5767 5765 5764 5763 5762 5761 5759 5758 5756 5754 5753
5791 5783 5787 5802 5817 5816 5806 5795 5812 5817 5813 5807 5806 5805 5804 5803 5804 5805 5804 5802 5800 5797 5794 5792 5790 5788 5786 5784 5781 5779 5777 5776 5775 5773 5772 5771 5770 5768 5767 5765 5764 5763 5761 5760 5759 5757 5754 5752 5751
5779 5783 5787 5792 5809 5810 5800 5799 5811 5814 5812 5808 5807 5805 5803 5802 5804 5806 5805 5804 5802 5799 5796 5793 5790 5787 5785 5783 5780 5777 5776 5775 5774 5773 5772 5771 5770 5768 5767 5765 5763 5762 5760 5758 5757 5755 5753 5751 5750
5794 5788 5784 5796 5811 5804 5798 5800 5807 5812 5810 5807 5805 5804 5803 5804 5807 5807 5806 5804 5801 5798 5795 5793 5790 5787 5784 5781 5777 5774 5773 5773 5773 5772 5771 5771 5770 5768 5766 5765 5763 5761 5759 5757 5756 5754 5751 5750 5749
5793 5785 5785 5796 5810 5804 5796 5799 5809 5811 5810 5810 5808 5805 5805 5803 5803 5804 5804 5802 5800 5797 5795 5793 5791 5788 5786 5783 5780 5777 5774 5774 5774 5773 5771 5771 5769 5768 5767 5764 5763 5760 5758 5756 5754 5752 5749 5748 5747
5791 5785 5787 5789 5800 5801 5794 5790 5800 5808 5811 5812 5812 5810 5808 5806 5803 5803 5802 5801 5800 5797 5795 5794 5791 5789 5786 5784 5780 5777 5774 5772 5771 5770 5769 5770 5769 5768 5767 5765 5762 5760 5758 5755 5753 5752 5749 5745 5745
5784 5800 5797 5792 5781 5771 5782 5762 5788 5797 5802 5806 5808 5809 5809 5809 5807 5804 5802 5800 5799 5799 5797 5794 5792 5789 5786 5783 5779 5775 5770 5768 5768 5768 5768 5769 5768 5768 5766 5764 5762 5760 5758 5755 5753 5752 5749 5746 5743
5796 5806 5798 5790 5778 5768 5772 5762 5775 5791 5792 5800 5807 5810 5811 5810 5808 5806 5805 5803 5801 5800 5798 5795 5791 5788 5785 5782 5779 5775 5772 5770 5769 5768 5767 5766 5766 5765 5764 5763 5761 5758 5757 5755 5753 5750 5748 5747 5744
5806 5795 5785 5771 5762 5751 5766 5758 5764 5780 5792 5801 5809 5811 5811 5811 5810 5808 5806 5804 5801 5800 5797 5794 5790 5787 5785 5782 5779 5775 5772 5769 5766 5765 5764 5763 5763 5762 5762 5760 5759 5757 5756 5754 5752 5750 5748 5746 5744
5795 5769 5746 5744 5735 5743 5764 5759 5767 5795 5805 5809 5811 5812 5813 5811 5809 5807 5804 5802 5799 5798 5796 5794 5791 5787 5785 5783 5779 5776 5773 5770 5766 5764 5762 5761 5760 5759 5759 5758 5757 5756 5754 5753 5752 5750 5747 5745 5743
5782 5770 5743 5732 5729 5740 5756 5755 5779 5804 5810 5814 5814 5813 5813 5811 5810 5807 5805 5803 5800 5798 5796 5793 5790 5787 5785 5782 5779 5777 5774 5771 5767 5765 5762 5760 5759 5758 5758 5757 5756 5755 5753 5752 5750 5748 5747 5745 5743
5777 5766 5769 5745 5739 5734 5743 5760 5783 5802 5805 5808 5809 5809 5809 5808 5808 5806 5805 5803 5801 5798 5796 5793 5790 5786 5784 5781 5779 5775 5773 5770 5767 5764 5762 5759 5758 5758 5757 5755 5754 5752 5751 5750 5749 5747 5745 5743 5742
5788 5771 5750 5738 5725 5724 5740 5751 5762 5785 5792 5799 5802 5803 5804 5805 5805 5803 5802 5802 5800 5797 5794 5792 5789 5786 5783 5780 5777 5775 5771 5768 5765 5762 5759 5757 5756 5756 5754 5753 5751 5749 5748 5747 5746 5744 5743 5741 5739
5773 5764 5750 5735 5735 5723 5723 5745 5785 5787 5792 5794 5797 5800 5801 5801 5801 5800 5800 5799 5797 5795 5792 5789 5787 5784 5780 5778 5775 5772 5769 5766 5763 5760 5757 5756 5754 5753 5752 5751 5748 5746 5745 5744 5742 5741 5739 5737 5736
5781 5768 5752 5740 5732 5726 5724 5746 5795 5793 5794 5794 5794 5797 5799 5799 5799 5798 5796 5795 5793 5791 5789 5786 5785 5781 5778 5775 5772 5768 5766 5763 5760 5757 5755 5754 5752 5751 5750 5748 5745 5743 5742 5741 5739 5737 5736 5734 5732